Regional Weather Roundup
Issued by NWS Northern Indiana

Home | Current Version | Previous Version | Text Only | Print | Product List | Glossary On
Versions: 1 2 3 4 5 6 7 8 9 10 11 12 13 14 15 16 17 18 19 20 21 22 23 24 25 26 27 28 29 30 31 32 33 34 35 36 37 38 39 40 41 42 43 44 45 46 47 48 49 50
000
ASUS43 KIWX 261310
RWRIWX

KIWX WEATHER ROUNDUP
NATIONAL WEATHER SERVICE NORTHERN INDIANA
800 AM EST MON JAN 26 2015

NOTE: "FAIR" INDICATES FEW OR NO CLOUDS BELOW 12,000 FEET WITH NO
SIGNIFICANT WEATHER AND/OR OBSTRUCTIONS TO VISIBILITY.

* THESE STATIONS ARE NOT UNDER NWS QUALITY CONTROL. THEY ALSO MAY NOT
  REPORT WEATHER SUCH AS PRECIPITATION OR FOG.

INZ001>027-261400-
NORTHERN INDIANA

CITY           SKY/WX    TMP DP  RH WIND       PRES   REMARKS
GARY*          PTCLDY    18   9  68 SE7       29.99R WCI   8
VALPARAISO     CLEAR     11   7  84 CALM      29.97R
MICHIGAN CITY* PTCLDY    12   5  73 CALM      29.98S
LAPORTE*       CLEAR     13  10  90 NE3       29.96S
KNOX*          CLEAR     10   1  68 N3        29.96R
SOUTH BEND     CLEAR     10   5  80 N6        29.97R WCI   0
ELKHART*       CLEAR     10   5  79 CALM      29.97R
GOSHEN         CLEAR     11   6  81 N6        29.95R WCI   1
MONTICELLO*    CLEAR     12   8  85 N3        29.95S
LOGANSPORT*    CLEAR     10   9  92 CALM      29.96R
ROCHESTER*     PTCLDY    12  10  92 NE3       29.96R
WARSAW*        PTCLDY     9   5  85 CALM      29.94R
ANGOLA*        CLEAR      5   1  85 CALM      29.91S
FORT WAYNE     PTCLDY     7   3  84 NW6       29.94R WCI  -3
HUNTINGTON*    MOCLDY     9   3  76 CALM      29.94S
PERU/GRISSOM   PTCLDY    12   7  81 N5        29.93R WCI   4
MARION*        PTCLDY    13   7  78 N6        29.94S WCI   4

$$
INZ028>050-261400-
CENTRAL INDIANA

CITY           SKY/WX    TMP DP  RH WIND       PRES   REMARKS
LAFAYETTE      CLEAR     16  11  80 CALM      29.97R
KOKOMO*        PTCLDY    12   5  73 NE5       29.94R WCI   4
MUNCIE*        PTCLDY    13   8  81 N8        29.91R WCI   2
INDIANAPOLIS   MOCLDY    17  12  80 N7        29.93R WCI   8

$$
MIZ043>046-050>051-056>058-064>065-071>073-077>080-261400-
SOUTHWEST LOWER MICHIGAN

CITY           SKY/WX    TMP DP  RH WIND       PRES   REMARKS
BATTLE CREEK   CLEAR     10   5  80 NE5       29.94F WCI   2
BENTON HARBOR  PTCLDY    10   7  87 NE3       29.98R
COLDWATER*     PTCLDY     7   5  91 CALM      29.93S
HILLSDALE*     PTCLDY     7   5  90 N3        29.90R
HOLLAND        PTCLDY    12   7  80 CALM      29.98F
GRAND RAPIDS   PTCLDY     8   4  83 NE3       29.98R
KALAMAZOO      PTCLDY     8   5  87 CALM      29.95S
STURGIS*       CLEAR      7   5  92 CALM      29.93S
THREE RIVERS*  FAIR       9   6  87 NW3       29.96S

$$
OHZ001>008-015>018-024>025-261400-
NORTHWEST OHIO

CITY           SKY/WX    TMP DP  RH WIND       PRES   REMARKS
WAUSEON*       FAIR       9   5  85 N8        29.92R WCI  -4
DEFIANCE       PTCLDY     7   3  84 NW8       29.94R WCI  -6
FINDLAY        CLOUDY    14   7  73 N13       29.87R WCI   0
TOLEDO EXPRESS CLEAR      9   3  77 N6        29.91R WCI  -1
TOLEDO METCALF MOCLDY    13   5  70 N8        29.92R WCI   2
LIMA           MOCLDY    15   8  73 N8        29.86R WCI   4

$$
AND FOR LAKE MICHIGAN COASTAL AND OPEN LAKE BUOY OBSERVATIONS

STATION/POSITION TEMP    WIND        PRES    VSBY  WAVE
                 AIR SEA DIR/SP/G                  HT/PER
                 (F)     (DEG/KT/KT) (MB)    (MI)  (FT/S)
CALUMET HARBOR    20     190/  5/  6   N/A
MICHIGAN CITY     16      70/  4/  5   N/A
SAINT JOSEPH      14      30/  1/  3 1016.3R

$$
&&


USA.gov is the U.S. government's official web portal to all federal, state and local government web resources and services.